THOR ABLESTAR DEB, 1942

Orbit data source: Space-Track

THOR ABLESTAR DEB, 1942 is space debris in LEO originally from a launch on Thu, 29 Jun 1961 UTC launched from the Air Force Eastern Test Range (AFETR). Debris objects in space refer to the collection of defunct objects orbiting the Earth. Examples of debris include non-operational satellites, rocket bodies, and fragments generated from explosions, collisions, or faulty payload assembly.

Loading next visibility...
Identifier
1942, 1961-015HS
Orbit
LEO
Country
Flag of USUS
Related business
Manufacturer
Unknown
Mission
Spacecraft
Bus & Motor
Unknown
Mass
Unknown
Launch date (UTC)
1961-06-29 (65 years ago)
Launch vehicle
Unknown
Launch site
Air Force Eastern Test Range (AFETR)
Object type
Payload
Rocket body
Debris
Shape & HBR
Unknown shape, 0.1 m
Radar Cross Section
Small (<0.1 m²)

Expand to show TLE details & history
Last TLE update: 9 hours ago

TLE from 9 hours ago
0 THOR ABLESTAR DEB
1 01942U 61015HS  26101.13092723  .00000003  00000-0  12781-3 0  9991
2 01942  67.2662 140.9662 0346545 295.6301  91.3210 13.13345228108016
Epoch: 2026-04-11T03:08Z
TLE epoch observation values (Epoch: 2026-04-11T03:08:32.112Z)
Latitude
28.33908°
Longitude
-92.52884°
Altitude
1,228.044 km
Speed
7.236 km/s
True Right ascension
10h 15m 50s
True Declination
28° 12' 16"
Sunlit
Object was in partial shadow at epoch
Visualization orbit readout
Latitude
Unknown
Longitude
Unknown
Altitude
Unknown
Speed
Unknown
Apparent Right ascension
Unknown
Apparent Declination
Unknown
Sunlit
N/A
Visualization observer readout
Local Sidereal Time
17:59:27
Azimuth
Unknown
Elevation
Unknown
Doppler factor
Unknown
Orbital elements
Apogee altitude
1,471.562 km
Perigee altitude
945.73 km
Semi-major axis
7,586.783 km
Eccentricity
0.03465
Inclination
67.2662°
RAAN
140.9662°
Arg. of periapsis
295.6301°
True anomaly
95.28394°
Mean anomaly
91.321°
Eccentric anomaly
93.30326°
Mean motion
3.2844 °/min
Orbital period
109.61 mins
BSTAR
0.00012781

Documentation

Showing up to 5 results
|